Minot, ND

10:51 PM CST on February 08, 2016 (GMT -0600)
Minot International

Weather History for KMOT - November, 2013

Change the Weather History Date:

Wednesday, November 6, 2013

  Actual Average Record
Temperature  
Mean Temperature 29 °F 34 °F  
Max Temperature 39 °F 43 °F 75 °F (2009)
Min Temperature 19 °F 25 °F -9 °F (1919)
Degree Days  
Heating Degree Days 36 31  
Month to date heating degree days 183 179  
Since 1 July heating degree days 1076 1139  
Moisture  
Dew Point 19 °F    
Average Humidity 70    
Maximum Humidity 88    
Minimum Humidity 52    
Precipitation  
Precipitation 0.00 in 0.03 in 0.75 in (1918)
Month to date precipitation 0.01 0.17  
Year to date precipitation 24.67 16.23  
Sea Level Pressure  
Sea Level Pressure 30.10 in    
Wind  
Wind Speed 6 mph (WNW)    
Max Wind Speed 15 mph    
Max Gust Speed 19 mph    
Visibility 10 miles    
Events      
T = Trace of Precipitation, MM = Missing Value Source: NWS Daily Summary

Daily Weather History Graph

Daily Weather History Graph

Search for Another Location

Airport or City:

Trip Planner

Search our weather history database for the weather conditions in past years. The results will help you decide how hot, cold, wet, or windy it might be!

Date:

Astronomy

Nov. 06, 2013 Rise Set
Actual Time 7:38 AM CST 5:17 PM CST
Civil Twilight 7:05 AM CST 5:51 PM CST
Nautical Twilight 6:28 AM CST 6:28 PM CST
Astronomical Twilight 5:52 AM CST 7:04 PM CST
Moon 11:02 AM CST (11/6) 8:18 PM CST (11/6)
Length of Visible Light 10h 45m
Length of Day
9h 39m
Waxing Crescent, 14% of the Moon is Illuminated
Nov 6
Waxing Crescent
Nov 9
First Quarter
Nov 17
Full
Nov 25
Last Quarter
Dec 2
New

Hourly Weather History & Observations

Time (CST) Temp. Windchill Dew Point Humidity Pressure Visibility Wind Dir Wind Speed Gust Speed Precip Events Conditions
12:54 AM 19.0 °F 13.9 °F 15.1 °F 85% 30.10 in 10.0 mi North 3.5 mph - N/A   Partly Cloudy
1:54 AM 21.0 °F - 17.1 °F 85% 30.09 in 10.0 mi Calm Calm - N/A   Scattered Clouds
2:54 AM 21.9 °F - 17.1 °F 82% 30.08 in 10.0 mi Calm Calm - N/A   Scattered Clouds
3:54 AM 19.0 °F - 15.1 °F 85% 30.08 in 7.0 mi Calm Calm - N/A   Mostly Cloudy
4:54 AM 23.0 °F 17.0 °F 19.9 °F 88% 30.07 in 9.0 mi NW 4.6 mph - N/A   Overcast
5:54 AM 25.0 °F - 21.0 °F 85% 30.08 in 10.0 mi Calm Calm - N/A   Overcast
6:54 AM 25.0 °F 19.3 °F 21.0 °F 85% 30.07 in 10.0 mi SSW 4.6 mph - N/A   Overcast
7:54 AM 25.0 °F 20.7 °F 21.0 °F 85% 30.09 in 9.0 mi SSW 3.5 mph - N/A   Overcast
8:54 AM 28.0 °F 22.8 °F 21.9 °F 78% 30.10 in 10.0 mi WSW 4.6 mph - N/A   Mostly Cloudy
9:54 AM 30.9 °F 27.5 °F 23.0 °F 72% 30.10 in 10.0 mi West 3.5 mph - N/A   Partly Cloudy
10:54 AM 34.0 °F 28.8 °F 23.0 °F 64% 30.11 in 10.0 mi NW 5.8 mph - N/A   Clear
11:54 AM 37.0 °F 34.5 °F 23.0 °F 57% 30.03 in 10.0 mi West 3.5 mph - N/A   Partly Cloudy
12:54 PM 39.0 °F 34.0 °F 24.1 °F 55% 30.02 in 10.0 mi North 6.9 mph - N/A   Clear
1:54 PM 37.9 °F 30.9 °F 21.9 °F 53% 30.03 in 10.0 mi NNW 10.4 mph - N/A   Clear
2:54 PM 37.0 °F 28.5 °F 21.9 °F 54% 30.05 in 10.0 mi NNW 13.8 mph - N/A   Clear
3:54 PM 35.1 °F 26.9 °F 19.9 °F 54% 30.06 in 10.0 mi NW 11.5 mph - N/A   Clear
4:54 PM 30.9 °F 22.8 °F 19.0 °F 61% 30.09 in 10.0 mi NW 9.2 mph - N/A   Clear
5:54 PM 27.0 °F 18.0 °F 18.0 °F 69% 30.12 in 10.0 mi NW 9.2 mph - N/A   Mostly Cloudy
6:54 PM 23.0 °F 13.9 °F 16.0 °F 74% 30.14 in 10.0 mi WNW 8.1 mph - N/A   Partly Cloudy
7:54 PM 27.0 °F 20.5 °F 17.1 °F 66% 30.16 in 10.0 mi West 5.8 mph - N/A   Overcast
8:54 PM 24.1 °F 13.1 °F 14.0 °F 65% 30.17 in 10.0 mi West 11.5 mph - N/A   Clear
9:54 PM 23.0 °F 13.9 °F 12.9 °F 65% 30.18 in 10.0 mi West 8.1 mph - N/A   Clear
10:54 PM 19.9 °F 14.9 °F 12.0 °F 71% 30.20 in 10.0 mi WSW 3.5 mph - N/A   Clear
11:54 PM 19.9 °F 14.9 °F 12.0 °F 71% 30.26 in 10.0 mi SSW 3.5 mph - N/A   Scattered Clouds